User: anonymous   Login
Location: Unspecified
(40.9833°N, 0.0000°E)
Time: 23:48:43
(UTC+00:00)
Language:

BUGSAT 1 - Orbit

View from above orbital plane
View from above orbital plane
View from above satellite
View from above satellite

Ground track
Ground track

The orbit data is extracted from the following two-line orbital elements,

1 40014U 14033E   19200.82621575  .00000706  00000-0  69258-4 0  9995
2 40014  98.0182 149.0673 0030813 319.5893  40.3038 14.95291172277153
Epoch (UTC): 19 July 2019 19:49:45
Eccentricity: 0.0030813
inclination: 98.0182°
perigee height: 560 km
apogee height: 603 km
right ascension of ascending node: 149.0673°
argument of perigee: 319.5893°
revolutions per day: 14.95291172
mean anomaly at epoch: 40.3038°
orbit number at epoch: 27715

The dashed part of the orbit path shows where the satellite is in the earth's shadow,  

DLR